TimeMDT,TemperatureF,Dew PointF,Humidity,Sea Level PressureIn,VisibilityMPH,Wind Direction,Wind SpeedMPH,Gust SpeedMPH,PrecipitationIn,Events,Conditions,WindDirDegrees,DateUTC
12:16 AM,24.8,21.2,86,29.67,2.5,NNW,25.3,-,N/A,Snow,Light Snow,340,2012-10-23 06:16:00
12:28 AM,23.0,21.2,93,29.66,1.5,NNW,24.2,-,0.00,Snow,Light Snow,340,2012-10-23 06:28:00
12:43 AM,23.0,21.2,93,29.67,1.2,NNW,23.0,31.1,0.00,Snow,Light Snow,330,2012-10-23 06:43:00
12:56 AM,23.0,21.0,92,29.80,1.0,NW,24.2,-,0.00,Snow,Light Snow,320,2012-10-23 06:56:00
1:06 AM,23.0,21.2,93,29.69,1.0,NW,23.0,-,0.00,Snow,Light Snow,320,2012-10-23 07:06:00
1:17 AM,23.0,21.2,93,29.69,1.0,NNW,21.9,-,0.00,Snow,Light Snow,330,2012-10-23 07:17:00
1:25 AM,23.0,21.2,93,29.68,0.8,NNW,23.0,-,0.00,Snow,Light Snow,330,2012-10-23 07:25:00
1:37 AM,23.0,21.2,93,29.67,1.0,NNW,23.0,29.9,0.00,Snow,Light Snow,330,2012-10-23 07:37:00
1:56 AM,23.0,19.9,88,29.79,1.2,NW,21.9,28.8,0.00,Snow,Light Snow,320,2012-10-23 07:56:00
2:56 AM,21.9,19.9,92,29.83,0.8,NNW,24.2,-,0.00,Snow,Light Snow,330,2012-10-23 08:56:00
3:19 AM,21.2,19.4,93,29.71,1.0,NNW,23.0,28.8,0.00,Snow,Light Snow,330,2012-10-23 09:19:00
3:40 AM,21.2,19.4,93,29.71,1.5,NNW,21.9,29.9,0.00,Snow,Light Snow,330,2012-10-23 09:40:00
4:10 AM,21.2,17.6,86,29.70,3.0,NW,26.5,34.5,0.00,Snow,Light Snow,320,2012-10-23 10:10:00
4:23 AM,21.2,17.6,86,29.71,3.0,NNW,24.2,32.2,0.01,Snow,Light Snow,330,2012-10-23 10:23:00
4:56 AM,19.9,17.1,89,29.85,6.0,NW,25.3,32.2,0.01,,Overcast,320,2012-10-23 10:56:00
5:56 AM,19.9,16.0,85,29.86,7.0,NW,26.5,-,N/A,,Mostly Cloudy,320,2012-10-23 11:56:00
6:56 AM,19.0,15.1,85,29.88,10.0,NW,20.7,-,N/A,,Clear,320,2012-10-23 12:56:00
7:56 AM,17.6,14.0,86,29.78,10.0,NW,17.3,-,N/A,,Clear,310,2012-10-23 13:56:00
8:56 AM,19.4,14.0,80,29.78,10.0,NW,23.0,-,N/A,,Clear,320,2012-10-23 14:56:00
9:56 AM,19.9,16.0,85,29.92,7.0,NNW,26.5,-,N/A,,Clear,330,2012-10-23 15:56:00
10:56 AM,21.9,16.0,78,29.95,10.0,NNW,24.2,31.1,N/A,,Clear,330,2012-10-23 16:56:00
11:56 AM,21.9,16.0,78,29.96,10.0,NNW,25.3,29.9,N/A,,Mostly Cloudy,330,2012-10-23 17:56:00
12:56 PM,21.9,16.0,78,29.96,10.0,NNW,25.3,32.2,N/A,,Clear,330,2012-10-23 18:56:00
1:56 PM,21.9,16.0,78,29.98,10.0,NNW,20.7,-,N/A,,Mostly Cloudy,330,2012-10-23 19:56:00
2:07 PM,21.2,15.8,80,29.86,10.0,NNW,20.7,-,N/A,,Overcast,340,2012-10-23 20:07:00
2:56 PM,21.9,16.0,78,30.00,10.0,NNW,21.9,28.8,N/A,,Overcast,330,2012-10-23 20:56:00
3:12 PM,21.2,15.8,80,29.87,10.0,North,19.6,-,N/A,,Overcast,350,2012-10-23 21:12:00
3:41 PM,21.2,15.8,80,29.89,10.0,NNW,17.3,-,N/A,,Overcast,330,2012-10-23 21:41:00
3:56 PM,21.0,16.0,81,30.03,10.0,NNW,18.4,-,N/A,,Overcast,330,2012-10-23 21:56:00
4:56 PM,21.0,15.1,78,30.05,10.0,NNW,13.8,-,N/A,,Overcast,340,2012-10-23 22:56:00
5:56 PM,19.9,15.1,81,30.07,10.0,NNW,17.3,-,N/A,,Overcast,340,2012-10-23 23:56:00
6:56 PM,19.0,15.1,85,30.08,10.0,NNW,16.1,-,N/A,,Overcast,340,2012-10-24 00:56:00
7:56 PM,19.0,15.1,85,30.10,10.0,North,13.8,-,N/A,,Overcast,350,2012-10-24 01:56:00
8:56 PM,18.0,14.0,84,30.12,10.0,NW,9.2,-,N/A,,Overcast,320,2012-10-24 02:56:00
9:23 PM,14.0,10.4,86,29.96,10.0,West,6.9,-,N/A,,Scattered Clouds,280,2012-10-24 03:23:00
9:56 PM,12.0,9.0,88,30.14,10.0,West,10.4,-,N/A,,Clear,280,2012-10-24 03:56:00
10:56 PM,9.0,7.0,92,30.16,10.0,WNW,9.2,-,N/A,,Clear,290,2012-10-24 04:56:00
11:56 PM,6.1,3.9,91,30.17,10.0,West,6.9,-,N/A,,Clear,280,2012-10-24 05:56:00